GFSSW_con_3kmhel_111.txt.gz
Helicity
61 53 50 52 54 50 39 35 15 10 8 6 15 16 -4 -16 -5 -41 -7 112 148 104 83 82 64 60 60 46 67 77 111 77 23 32 40 72 78 53 130 103 105 90 90 150 145
66 58 50 55 62 63 56 46 28 18 4 12 26 32 3 -10 -11 -53 122 110 63 35 38 54 60 77 64 72 129 81 91 55 35 120 109 104 98 73 91 61 72 91 56 49 59
67 71 71 75 77 73 75 66 49 31 23 29 37 44 29 8 -14 142 63 57 41 -9 -17 28 61 56 41 62 82 72 78 55 90 109 118 99 84 82 82 71 72 85 100 108 105
80 83 68 81 82 90 92 101 77 56 46 51 57 54 26 25 63 171 125 94 76 23 54 79 82 82 78 68 69 64 57 81 78 107 102 63 58 67 71 77 111 103 85 87 106
75 72 68 89 86 103 123 131 109 90 67 69 71 53 16 31 26 203 142 112 70 54 49 75 75 81 90 120 131 93 77 90 109 114 95 90 84 62 75 86 68 84 102 105 89
82 71 66 88 96 114 137 162 129 113 104 94 80 44 33 36 118 178 66 67 10 41 27 33 56 76 151 95 109 96 129 98 92 99 97 85 78 85 85 78 85 75 77 69 63
75 73 72 68 89 124 165 222 173 156 146 111 62 39 89 95 132 116 97 74 61 60 49 44 46 66 91 99 94 96 61 63 63 61 65 76 87 88 41 45 81 76 93 64 86
79 63 75 68 82 127 189 241 229 197 172 98 65 69 80 101 77 93 88 82 102 102 81 110 118 107 80 104 116 79 52 74 40 55 126 96 90 89 82 116 82 58 45 70 44
78 71 66 72 76 143 248 274 256 197 150 94 93 104 22 173 33 44 12 21 39 55 82 171 112 64 80 98 150 134 184 54 61 95 89 108 86 64 83 148 82 41 45 50 47
68 60 45 60 72 191 350 301 250 162 122 117 135 132 137 122 97 85 88 42 73 88 107 116 130 110 91 159 235 106 87 52 69 53 70 89 74 53 67 72 69 26 23 30 37
69 58 42 32 91 374 503 293 244 196 217 235 156 194 283 110 151 119 134 99 28 97 119 69 113 255 83 45 25 98 157 194 149 86 100 140 105 89 58 35 60 29 42 34 25
53 61 56 45 169 288 191 331 256 357 153 56 83 123 153 122 184 184 113 211 155 122 89 100 187 80 59 64 89 102 94 96 110 84 89 141 93 56 27 37 34 30 26 57 128
55 46 49 72 192 317 231 255 315 276 191 112 88 93 76 91 92 113 84 167 150 134 110 141 104 60 150 94 89 98 90 95 104 81 55 83 76 33 15 8 16 63 77 222 233
52 29 66 143 358 387 319 352 298 212 205 116 97 138 69 47 101 49 47 42 127 112 77 74 33 37 89 144 107 126 87 66 101 121 133 20 104 35 101 93 125 185 161 238 182
65 48 109 364 361 403 425 384 278 173 269 130 185 308 174 152 146 76 39 -15 91 104 77 121 121 112 152 116 101 94 44 58 65 110 81 79 110 83 15 102 84 115 243 177 131
52 81 190 266 351 389 355 311 202 237 319 187 190 159 126 69 13 65 77 53 27 20 22 59 73 139 104 46 28 29 61 104 97 91 155 81 59 77 52 94 116 294 196 117 132
34 131 363 425 426 453 380 339 350 339 252 178 182 156 96 81 66 53 83 63 71 105 82 56 133 61 102 218 180 90 88 150 135 146 126 28 27 44 174 259 213 215 191 108 94
88 206 240 339 345 400 388 404 331 224 167 193 171 133 117 65 80 72 86 64 63 30 78 140 183 25 58 51 60 26 18 149 211 142 44 48 108 118 216 244 286 292 170 110 103
213 347 394 323 360 422 387 409 369 124 150 110 164 111 90 46 88 114 47 55 43 119 196 147 133 109 135 106 145 63 48 16 63 53 108 47 52 105 97 176 238 232 186 198 144
585 503 430 274 295 375 316 285 195 159 215 174 114 94 66 56 140 68 57 81 49 119 54 63 107 76 135 105 89 162 123 167 141 193 132 93 85 36 192 212 176 143 142 130 81
509 438 436 399 390 393 367 315 335 217 204 201 71 100 81 79 103 84 88 148 171 257 155 147 150 133 182 133 129 173 278 179 192 163 153 104 52 104 184 174 101 151 130 101 53
539 350 344 453 474 433 352 378 312 163 237 196 211 107 104 96 172 117 174 225 148 141 222 279 188 175 89 162 126 104 84 71 99 73 55 45 36 141 48 84 90 92 79 82 51
524 386 522 485 448 424 407 275 201 209 142 143 137 197 346 271 239 294 425 304 154 130 115 75 151 154 98 98 74 88 58 53 55 55 49 43 63 114 36 5 -9 -13 78 80 65
451 481 479 470 503 416 397 376 193 181 149 96 167 167 180 207 245 199 222 262 175 190 191 134 112 127 145 122 134 64 26 62 76 76 28 52 42 73 43 83 136 176 205 73 49
469 268 382 403 319 397 348 227 295 330 248 184 254 169 115 150 172 141 95 84 174 216 128 79 119 61 48 77 61 114 68 59 59 62 67 66 79 80 58 88 151 150 154 107 105
258 303 310 241 242 430 444 254 184 206 211 170 121 61 81 143 108 69 86 88 76 36 53 96 107 107 42 68 76 54 56 62 53 42 41 40 46 71 86 174 158 172 96 104 100
108 148 85 104 165 180 160 107 81 113 152 63 65 139 128 153 144 156 71 59 70 46 67 70 92 55 38 117 107 94 58 46 38 45 73 118 57 125 114 83 188 90 110 100 94

GFSSW_con_3kmhel_117.txt.gz
Helicity
33 30 27 26 27 30 21 18 26 28 34 38 36 39 48 25 52 -38 21 1 42 46 16 -8 4 3 24 50 39 62 148 94 78 53 35 94 7 11 101 169 113 106 125 136 22
52 53 44 46 39 32 23 30 43 44 39 37 29 35 34 29 -6 6 15 32 12 -2 8 23 41 44 66 56 63 141 157 88 65 38 50 25 23 38 88 167 190 131 90 100 89
144 133 101 63 60 53 47 45 51 53 44 28 28 29 49 32 -23 39 8 21 35 17 15 16 28 54 47 60 55 80 106 76 11 14 28 23 5 30 49 106 120 143 153 171 148
133 127 126 126 98 64 62 58 66 61 56 38 35 27 55 -6 38 63 21 19 69 48 34 29 43 75 84 77 55 101 64 84 103 92 68 31 64 8 59 76 93 101 133 168 215
124 116 119 115 113 93 58 60 69 74 64 48 48 36 19 36 113 87 78 63 68 72 51 42 61 62 68 87 91 49 53 50 39 64 56 66 76 63 45 66 68 58 106 154 176
119 107 98 90 85 89 87 48 57 78 80 63 61 53 -3 66 33 -3 105 102 65 71 49 44 70 101 117 80 105 75 65 63 41 34 56 67 30 96 88 90 95 93 94 123 130
126 118 110 95 85 85 82 74 55 93 91 52 49 48 43 145 95 9 51 49 131 92 76 56 73 120 150 141 71 137 114 81 147 112 73 20 3 88 92 95 64 96 83 119 122
105 100 86 90 88 78 78 89 65 106 92 77 73 79 78 56 46 -33 -24 1 65 70 64 55 88 138 155 131 116 114 137 118 113 51 54 110 83 199 121 61 73 81 155 117 134
93 86 91 90 99 93 89 86 130 105 89 83 81 69 42 10 -4 -5 -30 -74 -4 13 89 44 75 101 121 115 153 160 159 108 40 73 96 82 123 35 148 118 98 111 135 109 87
78 88 87 94 117 99 109 104 97 107 75 78 120 145 55 15 -10 -3 51 0 -1 45 81 122 136 180 193 186 236 146 153 148 143 144 85 44 21 47 54 131 118 114 119 106 81
83 92 90 87 88 90 73 62 62 59 72 109 86 163 151 92 149 5 34 31 53 89 102 122 170 255 86 73 89 111 143 167 156 125 95 148 107 49 -10 59 91 76 140 109 245
80 101 99 95 85 24 79 87 72 112 58 61 69 117 114 61 174 100 113 168 149 103 80 96 169 151 63 78 102 124 143 149 108 64 69 99 110 90 32 3 75 86 91 142 503
77 90 99 86 88 85 99 73 88 67 63 21 63 154 175 109 146 70 91 107 155 202 133 76 138 35 64 80 75 81 104 98 78 84 138 130 153 175 95 43 106 151 124 180 630
78 89 90 84 66 93 109 3 -13 10 100 56 21 81 16 67 95 105 21 -5 97 81 110 139 79 60 56 82 55 109 75 60 115 199 187 91 151 45 45 82 23 59 277 557 668
84 95 100 73 137 80 59 0 -35 50 220 87 113 65 86 13 78 69 8 77 12 -9 81 38 28 34 63 44 20 71 111 171 81 64 85 79 210 169 154 136 77 173 468 749 675
92 103 121 92 109 125 48 9 72 214 262 193 143 124 172 40 58 92 156 75 36 27 68 55 36 34 24 23 94 66 92 99 129 195 219 169 160 108 128 59 190 447 537 620 563
106 120 120 106 133 119 100 108 261 299 205 171 135 136 90 63 1 15 38 73 148 137 107 47 41 57 33 61 215 132 154 171 120 163 208 120 115 208 186 290 210 458 565 379 369
132 126 84 91 78 122 171 228 286 252 268 235 156 50 116 152 110 46 90 93 25 41 123 98 106 100 108 128 159 109 169 219 142 154 79 44 144 161 183 569 477 442 565 445 368
128 64 70 78 148 216 218 288 343 267 278 130 57 74 100 95 117 133 88 111 171 110 83 140 127 133 130 73 190 213 187 141 158 93 80 85 125 204 292 116 291 118 296 298 314
124 123 133 178 216 214 254 219 252 191 184 127 162 161 132 123 61 87 150 146 85 96 100 110 119 182 134 167 140 201 185 245 242 142 103 79 41 71 6 53 22 -6 -17 53 63
146 176 147 224 279 238 296 314 173 121 86 131 81 74 56 101 90 138 144 204 102 100 158 188 299 263 174 172 122 145 192 237 212 191 121 110 63 37 -8 -19 -60 -28 32 63 69
178 253 206 276 361 384 358 277 201 114 124 48 63 62 27 82 115 98 55 105 167 172 276 300 249 262 170 172 238 173 133 101 156 164 174 133 68 44 -33 -47 -89 51 99 135 106
243 269 216 339 328 326 255 178 187 161 146 112 95 70 47 93 125 145 186 185 230 244 246 263 280 267 294 253 176 157 149 104 177 207 214 205 225 111 -15 -32 208 253 222 154 137
215 274 280 325 328 246 244 207 118 161 112 103 83 120 117 123 148 167 218 165 244 260 354 291 279 303 273 292 205 188 123 100 164 210 171 136 79 74 96 121 106 134 216 219 138
140 261 267 314 258 337 249 218 125 132 117 125 123 115 175 209 150 148 228 303 306 263 291 252 307 292 298 161 130 61 43 94 118 107 176 102 113 46 106 198 191 253 236 193 104
161 128 286 215 157 172 227 215 127 89 143 175 176 109 186 233 174 181 287 291 247 211 216 252 287 287 180 96 78 136 105 141 154 116 111 101 124 291 261 280 287 187 125 51 32
110 138 148 153 161 166 142 153 119 149 177 125 135 223 177 170 206 190 168 181 138 192 192 308 276 224 107 101 125 129 125 145 109 182 204 198 243 128 180 210 174 129 94 92 82

GFSSW_con_3kmhel_120.txt.gz
Helicity
50 40 36 38 30 27 29 22 4 6 20 18 24 32 35 11 32 -12 31 32 72 52 13 9 35 40 55 79 95 116 100 70 56 48 6 32 61 82 53 103 98 139 143 68 8
139 101 69 44 39 39 45 33 32 26 25 27 25 33 38 19 -2 48 19 33 -2 -7 1 27 36 65 58 69 100 144 120 53 57 52 7 32 39 50 91 105 114 119 127 123 90
143 151 118 111 101 70 55 51 44 36 42 43 38 27 41 25 1 20 43 16 -3 1 22 13 20 38 45 67 85 125 123 94 34 34 68 55 40 21 -2 18 37 65 114 169 164
151 149 141 139 123 105 89 63 52 47 39 41 43 37 64 13 41 33 69 29 23 37 40 36 59 67 62 66 77 114 93 79 66 87 43 19 1 -40 20 11 29 58 79 99 104
135 140 148 146 151 130 105 84 61 51 43 47 50 67 26 45 87 103 31 32 54 61 44 59 60 68 75 77 78 67 58 85 82 26 2 9 37 79 38 24 20 25 64 102 119
150 151 152 153 137 116 107 94 82 57 48 38 70 75 23 63 16 32 58 103 80 89 69 82 85 157 113 107 117 106 78 59 53 56 34 36 54 72 73 46 68 86 90 88 111
163 167 160 141 127 113 102 91 78 64 59 69 80 63 53 119 75 61 62 100 102 74 80 75 120 183 213 137 109 88 63 54 96 70 86 69 77 92 54 128 153 123 93 113 109
143 138 135 119 118 101 97 64 48 70 74 88 108 75 75 66 57 72 64 34 19 -2 27 51 81 126 126 118 151 117 103 162 14 61 49 175 122 73 100 125 150 155 64 77 114
124 121 121 110 107 105 71 46 54 86 104 91 111 87 43 20 41 40 15 9 44 51 75 45 111 104 146 157 194 157 145 130 100 11 135 166 45 110 80 48 118 81 70 96 77
120 113 117 118 98 60 85 90 112 109 97 111 161 97 38 82 14 -20 40 58 49 104 139 99 184 211 249 184 180 123 138 106 75 86 90 117 86 83 59 53 83 80 80 120 259
91 93 110 119 67 43 82 82 86 104 112 107 104 145 145 128 131 103 54 88 99 134 120 129 242 242 98 117 134 132 112 89 117 91 121 124 140 126 101 14 39 48 26 144 359
98 98 117 125 79 21 73 77 83 86 71 72 66 142 79 140 185 87 200 207 176 147 124 171 157 99 139 123 100 104 108 102 95 83 99 152 154 108 80 44 -32 26 84 83 467
103 99 112 111 74 61 56 43 41 106 79 41 94 113 104 118 163 51 236 312 236 201 148 164 123 65 85 81 98 106 140 125 115 111 102 100 84 99 26 7 0 -51 15 77 446
85 84 96 106 69 65 54 6 -48 39 104 51 57 86 55 17 55 73 79 165 135 112 123 152 96 55 63 118 63 85 77 80 129 120 107 75 119 80 53 39 43 66 91 295 529
74 79 91 91 139 77 37 24 42 56 194 109 90 74 47 15 58 72 83 152 68 96 210 193 158 99 123 30 52 47 10 75 97 80 98 49 150 123 64 10 108 254 435 606 632
80 91 99 105 111 27 56 84 98 247 233 201 115 86 125 10 78 86 98 96 69 113 118 84 61 104 74 69 76 56 146 164 123 133 165 104 155 140 92 69 267 403 436 525 605
87 98 107 122 111 -49 76 140 263 307 248 143 149 151 101 88 46 37 23 76 97 131 104 95 70 128 130 100 114 136 203 170 165 232 183 160 107 231 147 322 396 603 778 650 583
100 109 106 105 61 43 96 235 309 240 262 207 200 188 114 112 103 51 84 68 73 127 135 135 157 92 67 88 79 138 181 184 154 156 99 113 117 132 138 205 352 431 358 491 162
120 130 113 110 55 76 172 327 331 295 233 202 165 123 87 111 111 82 143 131 103 154 152 120 119 166 136 99 111 131 190 131 199 153 143 86 134 92 108 119 207 24 52 77 95
131 129 103 95 63 156 214 237 263 246 252 210 172 167 194 200 259 185 170 156 212 118 134 143 111 137 188 166 139 113 113 193 236 184 162 117 89 89 42 9 -4 10 -61 -33 17
146 162 122 135 158 168 298 296 157 151 208 196 140 135 139 135 100 153 148 151 196 201 219 256 168 109 166 163 178 185 231 261 218 255 270 210 135 81 -5 48 20 20 48 67 119
193 238 186 148 286 327 220 253 168 157 56 95 98 94 78 84 63 100 106 112 106 159 178 150 156 151 197 197 162 189 215 260 326 252 251 211 139 88 32 11 242 296 157 139 135
225 217 203 242 331 307 259 200 150 120 135 135 127 92 44 67 70 69 98 128 118 150 105 129 155 195 239 251 245 211 230 247 264 232 136 184 198 119 135 175 298 289 225 143 99
233 291 282 277 263 228 210 181 168 166 99 120 138 112 81 65 56 118 105 110 120 125 150 206 229 206 188 202 189 267 304 243 167 256 217 166 128 131 180 252 301 314 293 244 187
186 287 255 308 242 238 232 228 131 118 123 114 123 79 56 68 71 120 190 208 226 216 255 245 187 191 212 229 208 281 196 77 159 124 145 107 135 194 207 311 305 314 296 221 154
247 282 227 272 166 195 242 141 119 93 132 103 98 91 69 92 114 72 141 235 262 247 271 258 159 214 229 207 226 232 79 86 94 112 150 172 239 195 327 397 345 270 221 165 113
162 129 167 182 215 247 187 98 124 91 88 72 90 95 97 89 142 131 153 202 218 241 239 203 215 243 230 192 207 230 152 75 88 169 165 157 188 233 282 260 242 213 183 145 108

GFSSW_con_3kmhel_123.txt.gz
Helicity
57 57 53 45 37 40 32 29 32 29 18 20 23 24 25 -1 16 3 46 36 89 54 30 44 54 80 75 89 84 92 91 65 53 33 22 49 98 79 117 150 160 130 115 115 79
99 94 98 83 54 47 46 44 46 46 39 40 36 34 26 23 6 44 43 79 41 -1 19 61 56 60 59 74 86 108 96 40 41 28 -7 24 42 61 83 135 117 112 96 63 76
127 139 118 131 110 91 84 68 53 52 44 53 43 37 33 24 -4 18 49 38 39 35 32 50 53 46 51 65 77 97 99 61 60 14 -7 -70 -32 3 31 55 85 80 73 52 56
171 161 173 139 138 131 115 95 67 44 49 51 48 48 68 2 79 49 97 98 59 33 60 61 74 74 58 62 95 95 79 59 23 29 42 -8 -40 2 64 83 80 57 67 72 68
174 185 182 181 172 151 123 91 80 71 57 60 59 63 30 54 33 80 85 21 25 67 63 64 78 95 97 79 71 71 77 94 75 25 35 40 55 82 74 68 29 41 61 97 107
181 193 181 169 151 133 124 105 92 80 72 73 75 53 33 56 43 88 137 105 96 108 91 92 120 143 100 90 89 121 93 58 29 25 64 69 76 81 50 48 63 101 134 180 171
163 166 167 163 150 128 108 104 103 82 80 91 92 54 56 70 71 63 50 57 114 134 123 118 150 155 161 114 127 75 72 82 73 84 105 114 115 80 137 114 124 133 135 110 91
158 160 157 143 127 111 101 81 71 68 82 115 102 74 51 58 49 75 78 61 23 47 55 48 120 131 122 108 149 122 128 112 51 152 121 151 191 131 98 135 97 94 120 150 179
159 141 139 140 132 116 119 117 103 127 123 95 98 93 47 33 84 77 78 50 48 50 40 48 145 161 149 159 185 174 124 93 153 101 132 149 144 128 85 77 96 77 66 72 104
145 142 134 131 119 116 120 105 101 111 103 97 136 124 46 83 79 34 37 68 78 96 122 138 212 212 211 223 155 127 125 112 139 131 140 135 111 124 123 138 91 43 32 13 102
139 132 138 128 118 96 108 86 112 89 84 98 105 139 93 132 179 104 122 145 135 155 134 151 230 211 91 142 184 191 176 155 153 127 149 121 102 92 73 65 40 38 -3 29 144
129 127 129 136 104 56 79 86 103 96 93 66 72 132 34 154 151 67 190 197 215 203 195 243 213 96 151 170 182 171 123 130 131 70 130 107 84 74 63 38 22 19 -8 79 207
107 108 114 115 104 83 73 72 107 154 73 50 122 126 118 139 183 48 210 301 309 230 186 225 153 103 137 133 148 123 147 113 134 108 101 115 104 75 36 -0 60 140 47 160 373
106 112 116 113 118 66 84 86 70 52 94 1 42 93 67 56 93 45 79 284 200 129 151 133 71 82 142 172 105 126 82 103 114 118 133 141 124 132 77 128 143 282 454 568 572
90 94 91 89 121 84 88 78 82 68 188 101 118 60 79 48 81 58 55 148 168 204 186 137 103 118 154 79 102 136 88 99 93 125 114 145 137 142 100 124 150 266 387 458 522
80 82 90 109 80 51 136 102 104 246 230 175 119 90 106 47 93 117 114 65 96 111 126 124 116 109 74 86 96 95 123 152 147 118 196 112 135 178 124 77 178 336 413 521 513
86 79 95 114 99 74 99 141 277 325 255 154 154 151 95 115 98 97 126 104 92 128 114 122 73 90 117 130 59 118 120 175 200 202 188 117 129 189 178 247 229 297 344 412 388
98 97 127 111 81 120 131 259 311 251 260 256 215 169 155 140 119 114 145 136 85 133 154 121 139 67 70 111 70 86 141 161 196 194 132 160 190 180 203 192 168 182 228 182 96
132 181 143 109 63 98 184 316 284 220 207 224 216 183 147 118 114 85 103 113 120 140 140 79 74 53 69 101 92 73 126 107 167 158 162 158 242 217 227 161 95 86 61 80 86
184 156 126 88 131 140 230 231 229 195 269 244 158 175 153 139 166 176 171 150 131 118 187 140 141 159 149 173 147 121 107 150 193 144 130 132 178 217 122 119 86 66 38 33 25
209 168 110 119 174 182 278 258 202 165 233 223 187 192 176 144 147 138 157 182 149 169 154 162 167 173 200 153 189 205 214 211 168 224 209 198 160 178 102 112 103 53 27 69 121
241 246 143 137 245 272 227 257 151 159 91 118 160 174 146 121 76 81 93 84 96 109 162 180 179 145 117 112 157 137 167 244 237 189 268 298 303 180 167 213 76 46 131 195 171
280 212 159 162 309 317 189 102 86 162 136 138 138 75 86 85 114 85 71 77 75 125 87 106 150 154 95 132 150 175 230 231 238 269 308 325 390 177 283 168 117 258 275 259 207
250 239 250 215 227 269 275 140 135 129 90 85 187 128 98 86 104 99 93 81 105 104 129 172 169 142 135 99 115 182 191 233 267 293 323 387 273 193 204 244 337 384 425 320 221
175 296 277 305 238 243 256 244 155 128 139 124 136 99 136 100 81 85 83 113 116 125 126 154 130 150 148 136 147 128 193 230 224 285 326 230 149 238 207 301 400 408 337 273 200
307 323 258 293 251 183 177 224 137 98 236 167 163 149 111 97 100 83 76 102 113 127 184 214 188 201 158 170 158 96 150 186 179 177 143 157 184 201 304 354 342 302 292 245 202
229 195 206 249 232 250 181 112 140 130 134 105 107 126 100 60 70 57 95 97 153 118 121 209 285 230 178 104 108 120 224 173 174 220 196 166 164 231 262 278 268 256 225 201 200